South Holston Observed Data For Previous 48 Hours

Caption
Day and Hour Reservoir Elevation (behind dam)* Tailwater Elevation (below dam)* Average Hourly Discharge*
2/19/2018 2 AM EST 1,718.47 1,488.62 2,010
2/19/2018 3 AM EST 1,718.53 1,488.63 2,010
2/19/2018 4 AM EST 1,718.60 1,488.62 2,010
2/19/2018 5 AM EST 1,718.72 1,488.64 2,011
2/19/2018 6 AM EST 1,718.72 1,488.64 2,020
2/19/2018 7 AM EST 1,718.72 1,488.63 2,020
2/19/2018 8 AM EST 1,718.78 1,488.63 2,020
2/19/2018 9 AM EST 1,718.84 1,488.61 2,020
2/19/2018 10 AM EST 1,718.84 1,488.63 2,020
2/19/2018 11 AM EST 1,718.90 1,488.63 2,020
2/19/2018 12 PM EST 1,719.02 1,488.63 2,020
2/19/2018 1 PM EST 1,718.90 1,488.62 2,020
2/19/2018 2 PM EST 1,718.66 1,488.63 2,018
2/19/2018 3 PM EST 1,718.66 1,488.63 2,010
2/19/2018 4 PM EST 1,718.66 1,488.62 2,010
2/19/2018 5 PM EST 1,718.60 1,488.63 2,010
2/19/2018 6 PM EST 1,718.53 1,488.62 2,010
2/19/2018 7 PM EST 1,718.66 1,488.63 2,010
2/19/2018 8 PM EST 1,718.66 1,488.62 2,010
2/19/2018 9 PM EST 1,718.72 1,488.64 2,013
2/19/2018 10 PM EST 1,718.72 1,488.63 2,020
2/19/2018 11 PM EST 1,718.72 1,488.62 2,020
2/20/2018 12 AM EST 1,718.78 1,488.64 2,020
2/20/2018 1 AM EST 1,718.90 1,488.62 2,020
2/20/2018 2 AM EST 1,718.90 1,488.62 2,020
2/20/2018 3 AM EST 1,718.96 1,488.64 2,020
2/20/2018 4 AM EST 1,718.90 1,488.62 2,020
2/20/2018 5 AM EST 1,718.96 1,488.63 2,020
2/20/2018 6 AM EST 1,719.02 1,488.63 2,020
2/20/2018 7 AM EST 1,719.02 1,488.62 2,020
2/20/2018 8 AM EST 1,719.02 1,488.62 2,020
2/20/2018 9 AM EST 1,719.15 1,488.62 2,020
2/20/2018 10 AM EST 1,719.21 1,488.63 2,020
2/20/2018 11 AM EST 1,719.15 1,488.62 2,020
2/20/2018 12 PM EST 1,719.08 1,488.63 2,020
2/20/2018 1 PM EST 1,719.08 1,488.61 2,020
2/20/2018 2 PM EST 1,718.90 1,488.63 2,020
2/20/2018 3 PM EST 1,719.02 1,488.62 2,020
2/20/2018 4 PM EST 1,718.96 1,488.63 2,020
2/20/2018 5 PM EST 1,718.90 1,488.61 2,020
2/20/2018 6 PM EST 1,719.02 1,488.62 2,020
2/20/2018 7 PM EST 1,719.02 1,488.63 2,020
2/20/2018 8 PM EST 1,719.08 1,488.63 2,020
2/20/2018 9 PM EST 1,718.96 1,488.63 2,020
2/20/2018 10 PM EST 1,719.15 1,488.62 2,020
2/20/2018 11 PM EST 1,719.15 1,488.62 2,020
2/21/2018 12 AM EST 1,719.15 1,488.62 2,020

Elevations are in feet above sea level. Discharges are in cubic feet per second and are reported at the end of the hour.